Regional Weather Roundup
Issued by NWS Sterling, VA

Home | Current Version | Previous Version | Text Only | Print | Product List | Glossary On
Versions: 1 2 3 4 5 6 7 8 9 10 11 12 13 14 15 16 17 18 19 20 21 22 23 24 25 26 27 28 29 30 31 32 33 34 35 36 37 38 39 40 41 42 43 44 45 46 47 48 49
000
ASUS41 KLWX 291610
RWRLWX

REGIONAL WEATHER ROUNDUP
NATIONAL WEATHER SERVICE BALTIMORE MD/WASHINGTON DC
1200 PM EDT WED JUL 29 2015

Note: "FAIR" indicates few or no clouds below 12,000 feet
with no significant weather and/or obstructions to visibility.
 TC=TEMPERATURE CELSIUS

 * =Non NWS site. Station does not report precipitation (e.g. rain,
    snow, etc.), thunder, or fog.

DCZ001-MDZ009-015-VAZ040>042-051-053>054-291700-
WASHINGTON METRO

CITY           SKY/WX    TMP DP  RH WIND       PRES   REMARKS
WASHINGTON NAT PTSUNNY   87  75  67 S9        30.01S HX  96
DULLES         PTSUNNY   83  73  72 S6        30.02S
ANDREWS AFB    PTSUNNY   87  73  62 SW8       30.01S HX  94
FT BELVOIR     SUNNY     85  74  71 VRB3      30.01S HX  92
QUANTICO       PTSUNNY   83  74  74 S8        30.02R
COLLEGE PARK*  MOSUNNY   88  72  58 SW5       30.00F HX  94
LEESBURG*      PTSUNNY   86  77  74 S7        30.03S HX  97
MANASSAS*      PTSUNNY   84  77  79 SW6       30.01F HX  94
GAITHERSBURG*  CLOUDY    82  73  74 S5        30.06S

$$

MDZ006>007-011-014-291700-
BALTIMORE METRO

CITY           SKY/WX    TMP DP  RH WIND       PRES   REMARKS
BWI AIRPORT    PTSUNNY   87  73  62 S6        30.00F HX  94
MD SCIENCE CTR   N/A     87  73  62 MISG      30.00F HX  94
MARTIN STATE   MOSUNNY   86  79  79 SE7       30.02F HX  99
ANNAPOLIS      LGT RAIN  81  73  76 SE9       30.01S
FORT MEADE*    PTSUNNY   86  73  66 CALM      30.03S HX  93

$$

MDZ012-015-019>023-291700-
MARYLAND EASTERN SHORE

CITY           SKY/WX    TMP DP  RH WIND       PRES   REMARKS
OCEAN CITY     SUNNY     85  76  74 VRB6      30.02F HX  94
SALISBURY      MOSUNNY   85  73  67 VRB6      30.02S HX  91
BAY BRIDGE AP*   N/A     86  70  58 SE7       30.01S HX  90
CAMBRIDGE*     MOSUNNY   86  72  62 S7        30.02S HX  92
EASTON*        MOSUNNY   88  75  66 SW12      30.05S HX  97

$$

MDZ017>025-291700-
SOUTHERN MARYLAND

CITY           SKY/WX    TMP DP  RH WIND       PRES   REMARKS
PATUXENT RIVER PTSUNNY   85  73  67 VRB6      30.02S HX  91
ST INIGOES     PTSUNNY   85  74  69 S6        30.02S HX  92
LEONARDTOWN*   CLOUDY    82  70  65 S3        30.04S

$$

MDZ003>005-291700-
NORTH CENTRAL MARYLAND

CITY           SKY/WX    TMP DP  RH WIND       PRES   REMARKS
FREDERICK*     CLOUDY    82  75  78 CALM      30.05F
HAGERSTOWN APT PTSUNNY   83  71  67 S8        30.03S
WESTMINSTER*   PTSUNNY   82  75  78 CALM      30.04F

$$

MDZ501>502-291700-
WESTERN MARYLAND

CITY           SKY/WX    TMP DP  RH WIND       PRES   REMARKS
OAKLAND*       MOSUNNY   77 N/A N/A CALM      30.13S
CUMBERLAND*    MOSUNNY   81  72  74 S3        30.07S

$$

VAZ025>031-291700-
SHENANDOAH VALLEY

CITY           SKY/WX    TMP DP  RH WIND       PRES   REMARKS
WINCHESTER*    PTSUNNY   84  72  65 CALM      30.03S
FRONT ROYAL*   CLOUDY    81  72  74 CALM      30.01F
LURAY*         PTSUNNY   86  72  62 SW7       30.02S HX  92
NEW MARKET*    PTSUNNY   83  72  70 SW6       30.00F
STAUNTON*      MOSUNNY   84  72  65 CALM      30.06F HX  90
WAYNESBORO*    PTSUNNY   78  72  82 SE5       30.07S

$$

WVZ021-048>050-054>055-291700-
EASTERN WEST VIRGINIA PANHANDLE

CITY           SKY/WX    TMP DP  RH WIND       PRES   REMARKS
MARTINSBURG    CLOUDY    80  70  71 CALM      30.03S
PETERSBURG*    MOSUNNY  N/A N/A N/A CALM      30.03S

$$

VAZ036>039-050-291700-
CENTRAL FOOTHILLS

CITY           SKY/WX    TMP DP  RH WIND       PRES   REMARKS
CHARLOTTESVILL CLOUDY    81  73  76 S7        30.03S
CULPEPER*      PTSUNNY   81  74  79 S3        30.02F
ORANGE*        PTSUNNY   82  73  74 S3        30.04S
GORDONSVILLE*  CLOUDY    81  73  78 S7        30.02S
WARRENTON*     CLOUDY    84  77  79 SW3       30.02S HX  93

$$

VAZ055>057-291700-
NORTH AND CENTRAL PIEDMONT

CITY           SKY/WX    TMP DP  RH WIND       PRES   REMARKS
FREDERICKSBRG* MOSUNNY   85  78  80 S6        30.01S HX  97
STAFFORD*      CLOUDY    83  74  74 SE6       30.06S

$$

NCZ024-NYZ072-PAZ021-071-VAZ022-071-291700-
OTHER REGIONAL OBSERVATIONS

CITY           SKY/WX    TMP DP  RH WIND       PRES   REMARKS
NEW YORK CITY  PTSUNNY   92  61  35 CALM      30.01S HX  92
PHILADELPHIA   PTSUNNY   89  71  55 SW7       30.00F HX  95
PITTSBURGH     CLOUDY    85  69  58 SE5       30.01F
ROANOKE        CLOUDY    81  70  69 VRB5      30.08S
RICHMOND       CLOUDY    81  72  74 SW13      30.04S
RALEIGH        PTSUNNY   83  69  62 SE3       30.05F

$$

ANZ530>537-291700-
MARINE OBSERVATIONS

STATION/POSITION TIME  TEMP    WIND        PRES
                       AIR SEA DIR/SP/G
                 (UTC) (F)     (DEG/KT/KT) (MB)
THOMAS PT LIGHT  NOT AVBL
BALT KEY BRIDGE  1500   81     120/  4/  5 1016.2R
COVE POINT       1500   83     230/  7/  9 1017.1R
LEWISETTA        1500   82 84  250/  9/ 11 1016.2S
SOLOMONS ISLAND  1500      83                N/A

$$



USA.gov is the U.S. government's official web portal to all federal, state and local government web resources and services.